Погода в Псебае

Россия / Краснодарский край     44°06′57″N   40°47′54″E
темп.,
°C
ветер,
м/с
пор.,
м/с
влажн.,
%
обл.,
%
осадки,
мм/ч
давл.,
гПа
погр.,
м
29 июля, чт
чт2900:00+11ю33840 0.0 101747
03:00+11ююз33780 0.0 101746
06:00+12ююз33790 0.0 101644
09:00+20ссв21530 0.0 1015814
12:00+22с32460 0.0 10141358
15:00+23ссв324651 0.0 10131724
18:00+20всв236512 0.0 1014389
21:00+14ююз33830 0.0 101541
30 июля, пт
пт3000:00+13ююз32810 0.0 101536
03:00+13ююз32760 0.0 101437
06:00+14ююз32750 0.0 101539
09:00+21с21500 0.0 1013805
12:00+24ссв33400 0.0 10121630
15:00+24с334440 0.0 10111883
18:00+21всв117468 0.1 101247
21:00+16ююз32820 0.1 101339
31 июля, сб
сб3100:00+15ююз34755 0.0 101350
03:00+15ююз33710 0.0 101341
06:00+15ююз33735 0.0 101343
09:00+22с22460 0.0 1012997
12:00+25с34350 0.0 10111920
15:00+25с333826 0.0 10112144
18:00+23всв12618 0.0 1011113
21:00+17ююз33660 0.0 101350
1 августа, вс
вс100:00+16ююз33620 0.0 101342
03:00+15ююз32620 0.0 101339
06:00+15ююз32690 0.0 101440
09:00+23ссв11480 0.0 1013964
12:00+26ссв32370 0.0 10121921
15:00+26ссв424133 0.0 10112088
18:00+22св117393 0.2 101214
21:00+17ююз33820 0.3 101447
2 августа, пн
пн200:00+16ююз44790 0.0 101354
03:00+16ююз33710 0.0 101346
06:00+16ююз32720 0.0 101439
09:00+23с21510 0.0 1013759
12:00+26ссв32390 0.0 10111853
15:00+27ссв42371 0.0 10112158
18:00+24св12610 0.0 101294
21:00+18ююз44670 0.1 101362